GFSGL_sfc_dewp_009.txt.gz
Dewpoint
62 62 61 61 62 63 62 61 61 62 61 61 61 62 62 62 61 61 61 61 60 60 60 60 60 60 58 57 57 55 53 53 53 52 53 54 54 54 54 55 57 57 59
63 63 61 62 62 62 62 61 61 61 62 63 63 63 62 62 62 62 61 62 61 60 60 60 60 60 59 57 56 55 55 53 53 52 53 53 53 55 55 54 55 56 57
65 64 63 63 63 62 62 62 61 61 62 61 61 60 59 60 61 61 62 61 61 61 61 59 59 58 58 58 57 56 56 56 54 54 54 55 55 55 54 54 55 56 56
66 64 64 64 64 63 62 62 61 62 61 60 60 59 60 61 61 61 61 61 61 61 61 59 59 59 59 58 58 57 57 55 55 54 56 54 54 54 54 53 52 53 53
66 64 64 64 64 63 63 62 61 62 62 61 61 61 62 62 61 61 61 61 61 60 59 59 59 61 62 61 59 58 57 56 56 55 55 54 53 52 51 52 53 53 52
67 65 65 64 63 62 62 62 62 61 62 62 61 61 61 62 60 61 63 60 58 58 57 57 57 59 60 61 62 62 60 56 55 55 55 54 53 52 52 53 53 53 51
67 66 64 64 63 63 62 62 61 61 62 62 62 62 62 61 60 59 62 59 57 56 55 55 57 59 59 58 59 60 60 60 60 56 53 53 52 53 53 54 54 53 52
66 65 65 65 64 63 62 62 61 62 62 62 62 62 61 62 59 59 60 60 57 55 56 57 55 55 56 57 56 53 53 53 54 54 54 54 54 54 54 55 55 55 55
65 64 65 64 64 62 62 61 61 63 62 62 62 61 61 62 59 58 58 57 56 55 54 55 56 55 56 56 52 51 51 52 55 56 56 56 56 56 57 56 54 53 52
64 64 64 64 63 62 62 62 62 63 63 62 62 62 60 61 57 55 56 56 54 53 55 56 55 54 53 52 50 49 50 50 52 52 53 54 55 55 57 57 55 53 53
64 64 63 64 64 63 63 63 63 62 61 60 61 61 60 59 58 54 54 55 54 55 54 53 53 53 50 50 50 49 49 50 51 52 52 52 53 54 55 56 56 55 53
62 60 59 61 61 61 61 60 61 62 61 59 59 59 59 55 53 54 52 53 55 52 51 52 51 49 48 49 50 50 50 51 50 52 50 50 51 52 54 55 55 56 58
61 59 59 60 60 61 59 57 58 61 59 58 58 57 55 54 52 51 50 51 51 49 50 49 49 47 48 48 50 50 49 47 48 48 49 50 51 52 53 54 55 56 57
59 59 59 59 58 58 59 59 60 60 58 58 57 56 53 51 50 49 49 48 49 48 47 48 49 50 49 48 48 45 46 47 47 46 48 50 51 51 52 53 53 54 55
60 61 59 58 58 57 54 54 57 52 53 55 54 54 52 49 49 46 46 46 46 45 46 49 47 45 44 43 41 42 43 43 43 44 45 47 48 49 50 52 53 52 53
58 59 59 58 58 56 52 49 45 44 43 43 45 48 46 46 43 42 40 40 41 42 46 44 43 41 40 39 37 37 38 40 41 43 44 46 45 46 48 50 51 51 51
56 57 58 57 56 53 53 50 49 47 43 41 41 42 43 42 42 40 40 40 41 43 43 41 39 37 37 36 35 35 35 36 39 40 41 40 41 43 47 47 49 49 49
56 54 57 57 56 53 52 52 51 49 46 46 42 42 42 42 41 41 41 41 41 39 38 37 34 32 32 32 33 33 35 35 36 35 35 36 37 40 43 45 46 48 48
57 57 55 56 55 53 53 52 51 48 47 46 46 44 42 42 42 41 41 42 40 37 34 33 32 32 33 33 32 31 34 34 35 34 34 34 35 37 39 42 44 46 47
55 55 55 55 55 54 55 53 51 51 48 47 46 46 45 45 44 43 43 42 39 37 36 35 35 34 35 30 27 29 33 32 32 32 32 33 35 35 35 38 40 44 46
54 54 55 54 53 52 52 52 52 51 49 48 47 45 44 44 43 42 42 41 41 41 39 38 37 35 26 25 28 30 30 29 30 31 31 32 34 34 34 35 35 39 43
54 54 54 53 52 52 53 51 50 49 49 47 46 44 41 44 43 42 42 42 40 41 36 32 29 25 23 26 28 27 27 27 28 29 30 32 33 33 34 34 34 35 36
53 53 53 52 52 52 51 51 50 49 48 47 45 44 43 43 42 41 41 41 39 35 32 30 28 26 25 25 25 25 25 25 26 28 29 31 32 31 32 32 33 34 34
52 52 52 52 51 51 50 50 50 48 48 47 45 43 43 43 41 41 41 38 35 33 31 29 27 24 22 23 22 20 22 25 27 28 30 30 30 31 31 31 32 32 33
48 48 48 48 48 47 47 47 45 45 48 47 45 44 43 43 42 41 40 34 34 32 30 28 25 21 17 16 16 17 22 28 29 31 30 27 28 28 29 30 30 31 31
40 45 46 46 46 46 46 46 44 44 44 43 45 44 43 43 42 41 39 32 32 32 30 28 25 21 19 18 17 25 26 28 29 30 28 27 27 27 28 28 28 29 29

GFSGL_sfc_dewp_015.txt.gz
Dewpoint
72 73 74 72 71 70 69 67 67 68 68 68 68 66 66 66 67 67 67 66 66 66 67 66 66 67 63 62 62 62 60 59 56 54 55 59 61 61 61 62 61 60 57
71 73 72 71 68 69 63 65 66 67 67 67 67 67 66 66 66 67 66 64 66 66 65 66 66 64 67 67 65 64 62 63 59 59 60 58 61 62 62 62 60 58 57
70 70 70 69 68 66 66 65 65 66 66 66 66 67 66 66 66 67 66 65 65 65 65 65 65 65 66 64 64 61 60 61 61 59 57 56 57 59 60 61 61 60 58
68 70 71 70 69 67 65 65 65 65 65 66 66 67 67 67 66 65 64 65 66 64 65 65 65 65 65 65 64 64 63 61 60 59 58 56 56 59 58 57 55 55 54
70 70 70 69 69 68 67 66 65 64 65 65 65 66 66 64 62 64 64 65 66 66 65 65 65 65 64 63 60 62 63 60 57 56 57 56 54 54 55 55 54 54 56
71 70 70 70 68 68 68 67 66 65 66 66 64 64 64 63 60 61 64 65 66 66 64 65 66 63 62 62 61 62 62 61 60 59 58 57 58 57 55 54 53 52 50
71 71 70 69 68 68 67 67 66 64 64 66 65 65 65 66 60 60 62 65 66 66 66 65 64 59 61 61 59 59 59 60 60 61 58 58 58 57 57 56 55 54 54
71 71 70 69 68 68 68 67 67 67 63 64 66 66 66 66 60 59 61 65 66 64 64 64 64 63 62 60 59 59 59 59 59 56 57 57 57 56 56 55 56 56 55
70 70 70 69 68 68 67 66 66 66 66 67 65 65 67 67 59 58 61 65 64 64 64 63 62 62 58 56 58 58 58 58 55 54 54 54 55 55 55 55 53 53 53
70 70 70 69 68 68 66 66 67 68 66 65 66 66 63 66 59 57 61 65 63 61 64 62 57 58 54 53 58 57 56 56 55 54 53 54 55 55 55 55 54 53 53
70 70 69 68 68 66 66 67 67 67 66 65 66 67 67 65 64 57 55 65 60 59 58 58 58 53 52 50 51 57 55 52 53 52 50 50 51 52 51 53 55 53 54
69 69 68 68 68 67 66 67 67 67 67 65 65 64 65 64 56 56 55 55 59 60 58 57 57 50 49 49 51 50 49 48 49 49 48 47 47 46 47 50 53 54 55
68 67 68 68 68 68 67 67 66 66 64 64 63 60 58 62 62 51 51 52 54 57 56 53 50 48 48 50 49 48 47 48 47 46 44 43 43 44 49 48 49 54 56
67 67 67 67 66 66 64 63 62 61 60 59 60 62 60 59 58 57 55 54 51 51 50 53 52 51 49 49 48 47 47 45 43 42 41 41 41 41 39 41 44 50 53
66 65 66 65 65 61 57 60 60 62 57 59 61 60 59 58 57 53 53 54 54 50 51 53 53 52 51 50 48 46 44 43 41 40 39 38 37 36 36 39 45 49 52
63 62 61 60 59 57 56 54 44 44 44 43 46 54 53 46 43 42 42 41 41 43 49 51 51 51 49 46 44 42 42 40 40 38 37 36 35 35 36 39 46 48 51
64 63 60 59 58 57 58 57 55 47 42 41 41 43 45 43 41 41 41 40 41 43 48 49 48 47 45 43 39 38 37 37 41 36 35 35 35 35 36 39 44 45 48
63 55 61 59 59 59 58 58 56 55 54 50 42 43 40 40 40 40 41 43 46 46 48 47 46 43 41 40 39 36 34 33 33 34 34 34 34 34 35 37 41 45 46
59 57 58 58 59 57 58 58 57 55 54 51 48 45 43 41 40 39 41 48 47 45 44 43 41 39 41 41 38 35 33 32 34 34 33 33 33 33 34 35 39 43 44
60 57 57 59 59 60 59 57 58 55 52 51 49 49 48 46 47 48 48 47 45 43 42 42 41 41 42 39 35 31 32 35 34 32 32 32 33 32 32 33 35 40 42
60 59 57 58 57 57 57 56 56 53 52 51 51 51 46 49 48 46 45 45 44 43 44 43 43 42 39 35 32 33 35 33 32 32 31 32 33 32 32 32 32 35 39
55 54 55 55 57 57 57 57 56 54 53 52 52 50 43 49 48 46 46 45 45 46 45 45 40 36 32 31 32 34 34 32 32 31 31 31 32 32 32 31 32 32 34
54 53 56 58 59 55 57 58 55 54 53 52 52 50 48 48 47 46 45 44 45 44 44 40 38 34 31 29 32 35 34 31 31 32 32 31 31 31 32 31 32 32 32
55 55 55 55 56 57 55 55 54 50 51 51 51 49 48 48 48 46 44 44 45 44 42 38 35 30 29 25 29 30 32 33 34 32 34 32 31 32 30 31 31 33 32
53 54 54 53 55 56 54 53 53 52 51 51 50 50 49 49 48 46 44 43 43 42 40 36 32 30 27 25 22 23 26 27 33 31 32 32 33 35 31 29 31 30 32
50 52 51 50 50 51 51 50 50 50 49 50 49 48 48 48 49 48 45 44 42 40 38 35 32 30 25 23 24 25 26 27 32 30 31 30 30 29 29 29 30 27 30

GFSGL_sfc_dewp_021.txt.gz
Dewpoint
75 76 76 76 75 77 75 76 75 74 74 71 71 70 69 69 69 70 69 67 66 68 67 65 65 67 60 58 58 64 63 60 56 55 60 59 67 66 64 64 64 62 60
74 76 76 77 76 75 76 75 76 75 74 72 72 71 69 68 67 67 67 65 66 65 66 68 65 60 69 68 61 67 63 63 56 62 61 57 63 65 67 67 62 59 60
72 73 75 76 76 75 76 76 76 75 72 71 72 70 69 68 67 69 69 67 66 66 66 67 65 67 67 63 69 64 59 62 67 59 57 57 58 59 61 65 65 63 60
68 70 74 76 76 75 76 76 76 75 73 72 72 71 70 69 67 67 68 67 66 65 66 65 64 65 65 68 68 68 66 63 62 59 57 57 56 61 60 58 56 58 57
70 71 74 76 77 77 76 76 76 74 73 72 71 71 69 65 62 66 67 66 67 66 65 66 67 67 66 66 62 65 67 64 57 55 55 55 54 61 58 56 56 57 59
72 72 75 77 77 77 76 76 76 74 72 72 71 69 67 58 60 63 65 64 66 67 67 67 68 66 65 64 64 64 64 64 64 59 56 56 62 60 60 60 57 54 52
74 74 76 77 77 77 76 76 75 73 71 70 69 68 64 65 60 62 64 64 65 67 68 67 65 61 64 64 63 62 62 61 61 61 61 61 61 62 63 61 59 57 54
74 75 76 77 77 76 75 75 74 72 72 70 69 67 67 68 61 60 63 65 67 66 66 68 69 68 67 66 65 64 63 63 64 60 63 62 62 61 59 58 59 58 55
73 75 75 76 76 76 74 74 72 71 71 69 68 68 67 69 60 60 62 64 63 66 68 69 68 67 64 61 64 64 62 61 58 59 58 56 55 56 55 53 51 49 50
73 74 76 76 76 74 73 73 73 71 69 68 67 67 64 68 60 57 60 63 64 61 69 70 62 64 58 58 61 61 60 59 58 57 58 57 57 58 57 58 54 52 50
71 71 74 74 75 74 73 73 71 69 69 68 68 67 67 67 67 56 56 65 60 60 67 68 67 56 54 53 54 60 58 58 58 55 53 52 52 50 47 55 61 53 48
73 73 74 75 72 71 73 72 70 70 68 68 66 65 70 71 63 56 56 56 62 64 64 61 62 53 53 51 53 52 49 50 51 50 49 48 45 45 46 49 57 55 52
74 74 74 73 72 73 72 69 67 68 66 65 65 69 69 71 70 55 55 55 56 61 63 55 55 52 50 51 52 51 50 51 50 50 47 45 45 45 54 52 55 58 57
73 72 71 70 70 70 68 68 67 67 66 68 68 68 69 70 67 66 64 59 57 58 55 55 54 53 53 52 53 52 52 52 50 47 45 45 44 43 40 39 37 37 37
70 69 69 67 68 66 60 63 67 61 60 65 65 66 64 65 62 60 59 58 58 55 57 57 55 54 53 54 54 57 55 51 48 46 45 43 40 39 37 36 35 38 38
69 68 67 66 65 64 62 58 45 46 44 45 46 55 56 53 47 43 44 44 45 49 54 52 49 50 56 55 55 54 51 49 47 46 44 42 39 37 35 34 35 36 39
66 66 64 62 63 62 61 60 59 52 44 42 43 44 47 46 43 42 42 43 44 46 49 47 47 55 57 55 50 46 45 45 51 44 42 39 36 35 34 33 34 35 36
65 59 61 60 59 58 58 57 55 56 55 55 46 47 42 41 41 41 41 44 47 46 46 46 49 54 51 47 46 45 44 44 42 38 36 35 34 33 33 33 33 35 34
62 60 60 59 58 56 56 54 53 54 55 55 50 47 44 41 41 41 42 49 47 45 45 45 45 45 45 45 45 45 45 41 36 35 36 34 32 32 33 32 32 36 37
60 58 58 56 56 55 54 52 51 55 57 55 51 51 49 46 48 48 47 48 47 44 43 44 44 44 44 45 45 43 40 35 36 34 32 32 33 32 30 30 31 31 32
55 53 58 54 54 54 53 52 51 50 55 55 53 52 47 49 49 48 48 48 47 45 46 45 45 45 45 44 41 36 32 32 33 32 31 31 33 31 33 31 30 29 29
53 52 51 51 53 52 51 51 50 49 48 53 53 49 45 49 49 51 50 47 46 48 46 48 46 43 41 38 35 31 31 31 32 32 32 32 33 33 32 31 30 30 30
50 52 52 52 53 54 51 50 49 49 51 54 53 51 51 50 49 49 52 48 47 47 47 47 45 42 40 36 31 31 33 31 32 33 34 34 33 33 33 32 30 30 31
54 54 53 53 54 55 55 55 53 49 50 54 54 54 51 50 49 51 53 52 51 49 46 46 42 39 38 35 29 28 30 32 33 32 36 34 34 34 34 32 30 32 31
50 51 51 55 55 51 50 49 52 52 51 53 51 53 53 51 50 50 49 53 50 50 46 44 42 39 38 34 31 29 30 29 29 31 31 35 35 37 32 30 30 30 31
48 50 50 51 51 53 53 51 51 49 49 50 52 52 52 53 50 51 50 52 50 45 44 43 41 39 36 33 32 28 26 25 29 29 30 31 33 32 30 30 30 27 29

GFSGL_sfc_dewp_024.txt.gz
Dewpoint
76 77 77 77 77 76 75 75 74 75 74 73 72 71 70 70 71 70 69 70 69 69 68 68 68 68 66 66 67 66 65 62 60 62 63 63 65 65 64 65 66 65 63
75 76 77 77 77 76 75 75 75 74 76 74 72 71 70 69 70 69 68 67 68 68 68 68 68 66 67 68 67 66 66 65 64 61 63 63 64 65 66 66 65 61 63
74 74 76 76 76 76 76 75 75 75 74 72 72 71 70 69 69 69 69 68 67 66 67 68 67 67 67 66 67 66 67 67 66 63 62 64 63 64 63 64 64 64 61
72 73 74 76 76 75 76 76 75 76 74 73 72 71 70 70 69 68 69 69 68 67 69 68 67 67 68 67 68 67 67 66 64 63 61 60 60 62 63 61 61 62 61
70 72 74 76 76 76 75 76 75 76 75 73 72 71 71 69 68 68 68 69 68 67 68 68 68 68 67 67 67 66 67 65 63 63 61 61 59 61 59 60 59 60 60
69 71 73 75 76 76 76 76 76 76 75 74 72 71 71 68 63 63 67 68 68 67 66 67 67 68 66 64 64 64 65 64 63 62 61 60 61 62 61 60 59 57 55
71 71 73 74 76 76 76 75 76 75 75 74 72 71 70 69 60 61 64 67 67 67 68 67 67 63 67 67 64 63 63 63 62 63 61 61 61 62 63 60 59 58 56
72 73 74 75 76 76 76 75 75 76 75 73 72 71 70 68 60 60 63 67 66 67 67 68 68 67 68 67 66 66 66 65 64 63 61 62 63 63 62 59 58 57 56
72 75 74 76 76 76 76 75 76 75 74 72 70 69 68 67 59 59 61 64 64 66 67 68 68 67 65 62 65 63 64 65 63 60 61 60 58 56 57 57 54 52 51
73 73 76 77 77 76 76 76 76 74 72 72 70 70 65 66 58 58 61 65 64 63 67 68 63 65 61 59 63 64 63 62 63 62 61 59 57 58 57 57 55 53 52
74 75 77 76 77 77 76 75 74 73 72 71 70 68 67 65 65 56 57 65 63 64 67 67 67 59 56 56 57 62 60 58 60 60 57 55 55 55 57 59 59 57 55
76 75 76 77 75 75 75 73 73 72 70 70 68 67 67 68 62 56 55 57 63 66 67 67 66 55 54 54 54 54 51 52 56 55 53 53 54 54 54 55 56 56 54
75 75 76 76 75 75 73 72 70 70 67 67 66 65 66 71 70 55 54 56 56 64 65 58 54 53 53 52 52 52 52 54 54 53 54 52 53 54 56 54 55 57 58
76 75 74 72 71 71 69 68 68 68 67 66 66 68 70 69 66 63 61 60 58 59 57 56 56 55 54 56 55 53 54 56 56 55 54 53 55 52 50 51 48 47 43
72 72 71 70 69 64 57 60 67 59 61 68 70 69 66 66 65 62 62 65 63 59 57 57 56 56 55 55 56 56 56 56 56 55 54 53 51 50 49 49 47 43 42
69 68 68 68 66 62 59 56 46 46 45 45 47 59 57 53 48 47 44 45 47 51 57 63 61 58 58 56 57 57 56 56 55 55 54 51 49 48 47 46 46 46 45
69 68 67 66 65 65 64 61 56 50 45 43 44 48 49 46 43 42 42 44 47 50 59 57 55 57 57 56 55 54 52 53 55 53 52 51 47 46 45 45 44 45 44
68 60 66 64 64 64 63 63 60 58 56 53 46 47 42 42 42 42 42 46 51 50 54 52 53 56 55 54 52 50 53 52 51 49 46 45 45 46 44 43 43 43 42
64 65 65 63 62 60 61 60 57 58 58 53 50 47 44 42 42 43 44 54 53 52 51 52 53 52 53 53 54 53 52 50 46 45 45 45 45 42 42 42 41 40 41
64 59 62 62 59 59 58 55 56 58 58 55 54 52 49 48 50 51 52 53 53 52 51 51 51 53 53 53 53 52 49 47 46 47 46 45 45 42 38 39 38 38 41
61 61 56 58 58 57 56 55 55 57 56 55 55 53 48 52 51 52 51 52 53 52 54 53 53 53 53 52 51 47 43 42 44 42 42 42 43 40 43 40 37 36 37
56 55 56 54 56 57 55 55 57 54 56 56 56 51 44 51 51 53 53 55 52 55 53 56 52 52 50 47 45 43 41 41 42 42 41 41 41 40 41 38 38 38 38
54 53 57 57 56 54 53 52 54 54 54 55 54 50 49 51 53 54 54 54 52 53 52 52 52 50 49 46 44 43 42 41 42 42 42 42 40 41 40 40 38 37 38
53 54 55 56 60 55 54 52 54 51 53 52 52 52 52 53 53 54 52 54 52 51 51 49 48 47 47 45 43 39 41 42 40 40 41 39 39 40 40 40 38 37 38
53 55 55 55 53 52 53 52 51 51 51 54 54 55 54 53 54 54 53 52 52 52 51 51 49 47 46 44 43 33 29 30 36 30 36 40 39 42 41 35 38 36 39
47 49 50 50 51 53 51 50 54 52 51 52 53 53 54 55 53 53 53 52 52 51 51 50 48 47 44 40 39 29 27 28 33 29 32 34 35 40 39 37 37 33 36

GFSGL_sfc_dewp_030.txt.gz
Dewpoint
70 70 70 71 70 70 73 71 70 67 68 67 69 67 67 65 65 66 64 65 64 64 64 62 62 62 62 60 62 61 60 58 55 56 59 59 60 59 59 61 62 61 62
71 71 71 71 71 71 70 72 71 70 68 68 68 68 68 66 66 66 65 64 65 64 64 63 62 64 62 60 62 61 60 60 59 57 58 59 59 60 60 60 62 62 62
71 71 72 72 72 72 71 70 72 70 70 69 68 68 67 68 67 66 66 65 64 65 64 63 62 62 63 62 62 61 62 62 61 59 59 60 60 60 59 60 60 61 60
71 71 71 72 73 73 72 71 71 71 69 70 69 69 68 67 67 67 66 64 65 65 65 64 63 63 63 63 63 64 62 61 60 60 59 59 59 59 59 59 56 57 58
71 72 71 72 72 73 73 73 71 71 71 70 70 69 69 68 66 67 66 65 64 64 64 65 65 65 66 64 64 62 62 61 60 59 59 58 58 58 57 57 57 57 57
71 72 72 73 73 73 74 74 72 73 71 71 70 69 68 68 64 65 66 65 65 64 64 64 65 66 66 65 64 64 63 61 60 60 58 57 57 57 58 58 56 54 53
70 71 72 73 73 73 74 74 74 72 73 71 70 69 68 68 62 63 65 66 66 66 65 64 65 65 66 65 64 63 63 63 62 61 59 59 57 58 58 56 56 55 55
70 71 72 72 73 73 74 73 74 73 72 72 71 69 69 69 62 62 64 67 67 67 66 65 65 65 65 64 64 63 63 63 62 62 61 60 60 60 59 58 57 55 54
68 69 71 72 72 73 73 73 73 74 73 73 72 70 69 69 60 60 63 66 66 66 66 67 67 65 63 61 63 62 61 61 62 60 60 60 60 60 60 57 56 53 52
65 67 70 71 72 72 73 73 73 73 73 73 72 71 68 69 59 58 63 65 64 64 62 64 62 64 60 59 62 61 59 60 60 58 57 57 57 57 58 57 55 52 51
64 65 67 70 71 72 73 74 73 73 73 73 71 71 69 67 61 56 57 61 61 60 62 63 64 59 56 55 57 61 59 58 57 54 53 53 52 52 53 54 56 55 53
63 64 67 69 71 72 74 74 73 73 72 70 69 68 68 66 60 54 54 56 60 62 63 64 63 56 53 53 57 57 55 55 52 51 51 50 51 48 48 49 48 52 56
65 67 69 71 72 74 74 74 73 72 70 68 68 67 66 66 62 55 53 55 58 63 65 61 54 52 52 55 56 55 52 51 50 50 50 50 50 48 47 44 44 42 42
68 73 74 74 74 74 74 73 71 70 68 68 66 66 65 66 64 61 58 57 57 60 57 57 55 54 54 55 53 52 51 50 50 50 51 51 49 45 43 44 40 39 36
73 73 73 71 68 60 58 65 68 62 67 67 67 66 65 64 62 58 57 59 60 58 57 56 54 53 53 52 52 52 51 50 51 52 51 50 46 44 43 40 40 38 35
68 67 66 64 61 61 59 56 49 49 52 52 56 61 58 57 50 49 47 48 48 50 56 54 53 52 52 52 51 51 52 52 51 52 51 47 44 43 39 38 39 37 36
66 64 64 63 62 62 60 60 57 54 49 44 46 48 51 51 47 46 45 46 46 51 54 54 53 53 53 53 52 52 52 53 53 50 45 42 38 36 38 37 36 36 36
65 59 64 63 62 62 62 59 59 59 56 52 45 46 45 45 44 44 44 47 51 50 53 53 51 51 52 52 52 50 47 41 38 36 35 35 35 38 36 34 34 36 35
66 65 64 63 62 60 58 57 56 55 54 50 49 46 43 42 42 42 45 51 50 49 48 48 49 50 48 47 46 45 43 40 38 35 34 37 39 36 33 34 36 39 39
64 61 63 63 62 60 58 57 55 54 52 52 53 50 46 47 49 48 49 50 50 50 50 46 46 46 46 46 44 43 41 39 38 37 39 38 36 34 34 36 35 34 36
61 62 61 63 63 62 59 57 56 53 52 52 52 49 46 52 50 49 48 48 48 47 46 46 46 46 46 45 43 41 38 36 36 37 35 34 35 33 36 35 35 36 36
59 59 60 60 59 59 59 58 57 54 53 52 52 48 43 49 49 49 48 48 49 49 48 47 46 46 46 45 43 40 35 36 37 36 35 35 35 36 37 36 36 36 34
57 57 57 57 58 57 58 58 58 57 57 56 53 50 47 49 50 50 50 50 51 50 49 48 47 43 41 39 37 37 36 36 36 37 36 35 34 34 36 36 37 34 33
57 57 57 57 57 57 56 56 58 56 57 56 55 51 49 49 50 52 52 52 52 50 50 49 47 43 40 37 35 34 37 38 38 36 34 31 30 33 34 35 34 31 33
59 58 58 57 57 56 55 57 57 57 58 57 54 52 50 50 51 52 53 52 51 50 49 48 47 43 38 35 34 35 34 34 31 29 29 30 30 30 32 35 32 33 33
59 59 58 57 55 54 54 53 54 53 53 53 52 51 51 51 51 52 53 50 49 48 48 47 44 41 38 35 32 32 30 29 28 30 27 26 26 30 33 36 34 32 32

GFSGL_sfc_dewp_033.txt.gz
Dewpoint
68 68 69 69 70 70 70 70 68 68 67 68 69 67 66 63 66 65 64 63 63 63 63 62 61 61 61 60 61 60 59 56 54 55 58 59 59 58 59 61 62 61 61
68 68 68 68 69 69 70 71 69 67 67 67 68 67 66 65 63 65 65 64 63 62 63 62 62 62 61 61 61 60 59 59 57 55 57 58 58 59 59 59 60 61 62
67 68 68 68 69 69 69 70 71 69 67 67 67 67 67 66 65 64 65 64 64 64 63 63 63 62 61 62 61 61 61 61 60 58 58 59 60 60 59 60 60 60 60
67 67 68 69 69 70 69 69 70 71 69 67 67 67 67 67 66 65 65 65 64 64 64 63 63 62 61 62 61 61 61 61 60 59 58 58 58 59 58 58 57 57 57
67 68 68 69 69 70 70 70 69 70 70 70 68 68 68 67 67 66 65 64 64 64 64 64 64 64 64 63 62 62 62 61 61 59 58 57 58 57 57 57 56 56 57
68 68 69 69 70 71 71 71 70 70 70 70 69 69 68 68 64 65 66 65 64 64 64 64 65 66 65 64 64 63 63 61 61 59 58 57 58 58 57 57 56 55 54
68 69 69 69 70 71 72 72 72 70 70 70 70 69 69 68 63 63 65 66 65 65 65 66 65 65 65 65 63 63 63 62 62 60 59 59 59 58 58 57 55 55 54
69 69 70 70 70 71 71 72 72 72 71 70 70 69 69 69 62 61 64 67 66 66 66 66 65 65 64 64 63 63 63 63 62 63 61 61 60 61 59 58 56 55 54
68 69 70 71 71 71 71 72 72 73 72 72 71 70 69 69 60 60 63 67 67 67 67 67 66 65 62 61 63 62 62 61 62 60 60 60 60 60 60 57 56 54 52
68 69 70 71 71 72 72 72 72 73 72 71 72 71 68 70 59 58 62 67 67 66 66 66 63 64 59 58 63 62 61 59 59 58 57 57 56 55 57 57 56 53 50
67 69 69 70 71 72 72 72 73 73 72 72 72 72 70 69 62 57 60 67 67 66 65 62 62 58 56 55 58 61 60 58 59 56 54 52 51 51 51 51 54 53 51
64 65 69 70 71 71 71 72 73 73 73 72 72 71 70 67 59 56 58 61 62 64 61 61 62 57 52 52 54 55 55 57 55 53 50 49 50 50 47 48 46 50 54
63 64 65 68 70 71 72 73 73 73 73 72 71 69 67 67 62 56 56 55 57 61 62 61 56 52 50 53 55 55 54 54 52 50 49 49 50 48 48 43 43 40 39
61 63 66 67 69 71 72 73 73 73 72 70 69 67 67 66 65 61 59 58 57 60 57 57 56 56 55 56 55 53 53 51 50 49 49 50 49 47 43 43 39 38 36
65 64 67 69 69 65 57 67 73 66 70 69 68 67 66 65 64 58 58 59 61 58 57 57 57 54 54 53 52 52 51 51 50 50 50 50 48 44 43 41 38 38 35
69 66 64 63 61 61 60 58 51 54 54 54 56 62 62 57 51 49 46 48 49 51 58 58 57 55 53 52 52 51 50 51 50 50 50 50 47 43 41 37 38 36 34
63 63 63 63 64 64 63 63 61 58 53 49 47 49 54 53 46 44 45 45 47 52 57 56 54 52 52 52 51 51 51 52 51 51 50 46 44 39 36 37 34 34 35
63 58 64 65 65 63 62 61 62 62 62 58 48 48 45 44 45 44 44 48 55 54 54 54 53 53 53 52 52 51 51 48 46 43 38 36 35 35 36 33 33 35 35
64 64 64 65 64 62 62 62 62 62 60 54 51 47 44 43 43 44 47 58 57 53 52 51 51 51 51 50 49 47 42 39 38 36 34 37 38 36 33 33 35 39 38
64 61 62 61 60 60 59 58 58 57 56 58 58 53 48 51 53 52 52 52 53 51 49 48 49 49 47 46 45 43 41 39 37 36 35 36 37 34 33 34 34 34 35
63 63 61 61 60 59 59 58 56 57 56 57 57 53 48 54 52 51 51 50 50 50 47 47 47 46 45 44 43 42 40 39 37 36 38 36 34 33 36 35 34 35 35
60 60 62 61 60 59 58 56 55 54 54 53 51 47 44 53 52 51 50 49 49 48 47 47 46 46 45 44 43 41 38 36 37 37 35 35 34 36 36 35 35 35 33
58 58 58 58 59 57 58 58 55 54 53 53 52 49 48 50 51 50 49 48 49 48 47 47 46 45 45 45 44 42 38 36 37 37 36 36 34 34 35 34 35 33 31
57 57 57 57 57 57 58 58 57 54 56 54 53 50 49 49 50 50 49 49 49 50 48 47 46 45 43 41 39 37 36 37 37 37 36 34 31 34 33 33 34 31 32
57 58 57 58 57 56 56 57 58 58 58 57 55 52 51 50 50 51 51 51 51 50 49 48 47 43 40 38 35 33 34 35 36 34 31 28 27 28 31 34 34 32 32
60 59 58 58 57 57 56 57 57 58 58 57 56 54 51 50 50 51 52 52 51 50 49 48 46 43 40 37 34 34 32 33 32 29 28 29 27 27 32 34 35 32 30

GFSGL_sfc_dewp_036.txt.gz
Dewpoint
69 69 69 69 70 70 70 70 69 70 71 70 71 70 69 67 67 66 66 65 65 65 65 64 64 64 62 63 62 62 59 58 57 59 60 62 64 63 63 65 64 64 63
67 69 69 70 70 70 70 70 70 70 70 70 70 70 69 68 67 66 65 65 65 65 65 64 64 63 64 64 63 63 62 62 60 61 61 61 62 63 64 63 62 61 64
66 68 69 69 69 70 70 70 70 70 69 69 70 69 69 68 66 67 66 66 65 65 65 65 64 64 64 63 63 63 63 63 63 60 60 61 62 62 62 63 63 64 62
65 67 68 69 69 69 70 71 71 70 69 69 69 69 69 68 67 66 66 66 66 65 65 65 65 64 64 64 64 64 64 64 63 63 62 61 61 62 61 61 60 60 60
66 66 67 68 69 69 70 70 71 71 70 69 69 69 69 68 67 67 66 66 66 65 66 65 65 65 65 64 64 64 65 65 64 63 61 60 60 61 60 60 59 59 60
66 66 68 69 69 69 70 70 70 71 71 71 69 69 68 67 64 64 66 66 66 66 66 66 66 66 65 63 63 63 65 65 64 64 63 60 62 61 61 60 60 60 58
66 67 68 69 69 70 70 70 70 70 71 71 70 69 69 69 62 63 65 67 67 67 66 67 66 66 66 66 63 63 63 62 64 65 64 62 62 62 62 61 61 60 59
67 67 68 69 69 70 70 71 71 70 70 70 70 70 70 69 62 61 64 68 68 67 67 67 67 66 66 66 66 66 65 65 65 65 64 65 64 63 63 63 62 61 60
67 68 69 70 69 70 70 71 71 71 71 70 70 70 70 70 61 60 63 68 68 67 67 67 67 67 63 61 66 66 65 65 62 61 61 61 60 60 62 62 60 59 57
68 68 69 70 70 70 70 71 71 72 72 71 71 71 68 70 60 59 62 67 67 67 67 67 63 65 59 58 66 66 65 64 64 60 60 60 60 59 60 61 58 54 54
67 69 70 70 71 71 71 71 71 72 72 72 72 72 71 70 68 57 58 68 67 67 67 67 67 59 55 54 59 66 65 63 61 62 60 56 54 54 54 56 58 55 54
67 69 70 71 71 71 72 72 72 72 72 72 72 71 71 71 63 56 57 62 64 67 67 66 65 56 52 52 56 57 55 59 60 58 55 53 52 53 51 52 53 55 56
67 68 70 71 72 72 72 72 72 73 72 72 72 71 71 71 68 56 56 59 60 66 66 63 56 51 50 52 54 55 56 60 57 55 53 51 53 52 52 51 51 49 50
65 66 68 69 70 72 72 72 72 72 72 72 72 71 70 67 65 63 64 64 60 61 58 59 57 56 57 58 56 56 58 58 55 54 52 52 52 51 50 48 47 44 42
65 66 68 68 62 60 59 58 63 58 64 72 72 71 66 63 62 61 61 63 62 58 58 59 59 59 58 58 57 56 55 55 53 53 53 53 52 51 49 46 44 42 41
64 64 63 63 63 63 63 61 52 53 52 52 53 58 63 58 54 54 52 53 51 52 59 59 59 58 57 56 55 55 54 53 53 53 53 53 52 51 48 43 42 41 39
64 64 64 63 63 61 61 60 60 59 51 52 53 55 53 53 51 48 46 46 48 55 61 60 60 58 57 56 55 54 54 54 54 53 53 53 52 49 44 41 40 39 39
65 58 64 63 62 62 62 62 61 61 60 61 49 47 45 47 45 43 45 50 56 58 61 60 58 57 56 55 54 54 54 54 54 54 53 52 47 42 40 40 38 39 39
63 64 65 63 63 61 63 62 62 61 60 60 53 49 45 43 45 48 49 60 59 58 58 57 57 56 55 55 55 54 54 52 50 49 45 41 40 40 40 38 38 40 39
63 59 61 62 62 62 62 61 61 61 58 57 57 55 52 53 56 58 59 60 59 57 56 55 55 55 54 53 53 51 47 44 43 41 40 41 42 40 36 37 38 37 39
64 62 60 61 60 59 60 60 60 60 60 60 58 55 51 60 58 57 56 56 56 55 53 52 51 51 51 50 48 46 44 43 43 41 40 40 40 37 39 39 37 37 37
63 62 62 61 61 60 59 59 59 59 59 57 54 51 48 56 55 54 54 54 53 53 51 52 50 50 48 48 46 45 44 43 42 41 40 40 39 38 39 38 38 37 35
60 61 61 61 60 57 59 58 57 57 57 56 56 53 53 54 53 53 52 52 51 51 50 50 50 49 48 48 47 47 45 42 41 41 40 39 38 38 39 38 37 36 34
58 59 59 59 60 60 60 59 57 53 56 54 55 54 54 54 53 53 52 51 51 50 49 49 48 48 48 48 47 45 44 42 41 40 41 39 38 36 37 37 37 35 35
60 59 59 59 58 59 59 58 58 57 57 56 55 54 54 53 52 52 52 50 51 50 49 49 48 48 48 48 46 44 40 35 40 37 40 39 36 38 34 34 37 35 35
59 59 59 58 58 58 59 59 59 58 58 58 57 56 54 54 53 53 52 51 50 51 50 49 49 48 47 45 43 38 32 33 37 34 37 34 33 32 32 36 38 36 35